DW4847 Weather Reports


Display with metric or nautical units.
time (UTC)temp
F
wind
direction
speed
MPH
gust
MPH
rain 1hr
in
rain 24hr
in
rain mn
in
humidity
%
barometer
mb
20260503235528 47 321 3.0 5.0 0.00 0.00 0.00 40 1008.0
20260503235042 47 312 0.0 4.0 0.00 0.00 0.00 41 1008.0
20260503234529 47 319 2.0 8.0 0.00 0.00 0.00 40 1007.9
20260503234043 47 318 2.0 8.0 0.00 0.00 0.00 41 1007.9
20260503233538 48 258 1.0 7.0 0.00 0.00 0.00 38 1007.8
20260503233024 48 309 1.0 4.0 0.00 0.00 0.00 37 1007.9
20260503232536 48 261 0.0 10.0 0.00 0.00 0.00 39 1007.8
20260503232051 48 224 1.0 10.0 0.00 0.00 0.00 37 1007.8
20260503231537 48 292 2.0 6.0 0.00 0.00 0.00 36 1007.8
20260503231051 48 319 2.0 8.0 0.00 0.00 0.00 37 1007.7
20260503230537 48 306 3.0 8.0 0.00 0.00 0.00 36 1007.7
20260503230032 49 313 2.0 7.0 0.00 0.00 0.00 36 1007.7
20260503225602 49 321 2.0 7.0 0.00 0.00 0.00 35 1007.5
20260503225028 49 200 1.0 10.0 0.00 0.00 0.00 35 1007.7
20260503224602 49 312 3.0 10.0 0.00 0.00 0.00 35 1007.6
20260503224035 49 179 2.0 9.0 0.00 0.00 0.00 36 1007.7
20260503223549 49 229 4.0 9.0 0.00 0.00 0.00 35 1007.6
20260503223035 49 232 2.0 10.0 0.00 0.00 0.00 35 1007.5
20260503222549 49 355 5.0 10.0 0.00 0.00 0.00 35 1007.7
20260503222043 49 310 3.0 7.0 0.00 0.00 0.00 36 1007.5
20260503221527 49 211 2.0 9.0 0.00 0.00 0.00 36 1007.5
20260503221041 50 227 3.0 10.0 0.00 0.00 0.00 36 1007.5
20260503220528 50 317 4.0 10.0 0.00 0.00 0.00 35 1007.6
20260503220042 50 59 3.0 10.0 0.00 0.00 0.00 36 1007.6
20260503215528 50 355 3.0 10.0 0.00 0.00 0.00 36 1007.5
20260503215058 51 259 4.0 7.0 0.00 0.00 0.00 37 1007.4
20260503214531 51 345 2.0 5.0 0.00 0.00 0.00 38 1007.4
20260503214045 50 279 2.0 8.0 0.00 0.00 0.00 39 1007.4
20260503213530 50 331 4.0 10.0 0.00 0.00 0.00 38 1007.4
20260503213045 50 213 3.0 10.0 0.00 0.00 0.00 38 1007.3
20260503212559 50 259 3.0 10.0 0.00 0.00 0.00 39 1007.3
20260503212033 50 227 4.0 13.0 0.00 0.00 0.00 38 1007.3
20260503211548 50 298 6.0 13.0 0.00 0.00 0.00 38 1007.1
20260503211033 50 280 2.0 9.0 0.00 0.00 0.00 41 1007.3
20260503210548 50 304 2.0 9.0 0.00 0.00 0.00 41 1007.4
20260503205526 50 300 5.0 9.0 0.00 0.00 0.00 39 1007.4
20260503205038 51 190 5.0 9.0 0.00 0.00 0.00 39 1007.2
20260503204532 51 318 2.0 6.0 0.00 0.00 0.00 41 1007.4
20260503204035 50 241 2.0 7.0 0.00 0.00 0.00 41 1007.4
20260503203528 49 227 2.0 6.0 0.00 0.00 0.00 44 1007.6
20260503203040 49 303 2.0 8.0 0.00 0.00 0.00 43 1007.6
20260503202524 49 355 2.0 7.0 0.00 0.00 0.00 44 1007.6
20260503202035 48 244 4.0 11.0 0.00 0.00 0.00 43 1007.6
20260503201540 49 298 5.0 10.0 0.00 0.00 0.00 43 1007.5
20260503201032 48 314 3.0 10.0 0.00 0.00 0.00 45 1007.5
20260503200546 47 223 2.0 8.0 0.00 0.00 0.00 46 1007.6
20260503200030 47 343 2.0 10.0 0.00 0.00 0.00 44 1007.7
20260503195543 47 302 2.0 8.0 0.00 0.00 0.00 46 1007.8
20260503195037 47 294 4.0 14.0 0.00 0.00 0.00 45 1007.8
20260503194541 47 328 3.0 14.0 0.00 0.00 0.00 45 1007.9
20260503194034 47 265 3.0 9.0 0.00 0.00 0.00 45 1007.9
20260503193548 47 329 2.0 9.0 0.00 0.00 0.00 46 1007.8
20260503193034 47 329 2.0 10.0 0.00 0.00 0.00 47 1007.8
20260503192528 47 202 4.0 12.0 0.00 0.00 0.00 45 1007.9
20260503192033 47 292 5.0 12.0 0.00 0.00 0.00 44 1007.8
20260503191528 47 325 4.0 12.0 0.00 0.00 0.00 46 1007.8
20260503191101 47 194 4.0 11.0 0.00 0.00 0.00 45 1007.8
20260503190527 47 303 3.0 13.0 0.00 0.00 0.00 46 1007.8
20260503190058 47 355 5.0 13.0 0.00 0.00 0.00 45 1007.8
20260503185524 47 291 3.0 9.0 0.00 0.00 0.00 46 1007.7
20260503185039 47 225 4.0 9.0 0.00 0.00 0.00 45 1007.8
20260503184609 47 346 3.0 11.0 0.00 0.00 0.00 45 1007.8
20260503184034 47 244 2.0 13.0 0.00 0.00 0.00 45 1007.9
20260503183527 47 303 2.0 13.0 0.00 0.00 0.00 48 1007.7
20260503183101 46 334 3.0 10.0 0.00 0.00 0.00 45 1007.9
20260503182526 46 337 3.0 10.0 0.00 0.00 0.00 45 1007.9
20260503182040 46 344 4.0 10.0 0.00 0.00 0.00 45 1007.7
20260503181525 47 332 5.0 10.0 0.00 0.00 0.00 44 1007.8
20260503181040 47 325 4.0 10.0 0.00 0.00 0.00 43 1007.8
20260503180534 47 346 4.0 9.0 0.00 0.00 0.00 45 1007.7
20260503180039 46 222 3.0 13.0 0.00 0.00 0.00 46 1007.7
20260503175533 46 304 3.0 13.0 0.00 0.00 0.00 46 1007.8
20260503175046 46 306 5.0 11.0 0.00 0.00 0.00 45 1007.8
20260503174529 47 355 2.0 7.0 0.00 0.00 0.00 48 1007.8
20260503174042 46 237 2.0 7.0 0.00 0.00 0.00 49 1007.8
20260503173528 46 304 3.0 10.0 0.00 0.00 0.00 47 1007.7
20260503173101 46 346 3.0 15.0 0.00 0.00 0.00 47 1007.7
20260503172534 47 132 4.0 15.0 0.00 0.00 0.00 45 1007.6
20260503172046 46 232 5.0 12.0 0.00 0.00 0.00 46 1007.7
20260503171551 46 5 5.0 12.0 0.00 0.00 0.00 46 1007.6
20260503171024 46 5 4.0 10.0 0.00 0.00 0.00 45 1007.8
20260503170525 46 332 3.0 10.0 0.00 0.00 0.00 44 1007.8
20260503150538 44 329 2.0 9.0 0.00 0.01 0.00 63 1008.1
20260503131102 42 236 4.0 11.0 0.00 0.02 0.00 69 1008.6
20260503130526 42 326 3.0 8.0 0.00 0.02 0.00 71 1008.6
20260503110544 34 292 1.0 3.0 0.00 0.03 0.00 83 1008.5
20260503081527 33 242 0.0 1.0 0.00 0.16 0.00 81 1008.7
20260503081024 33 242 0.0 1.0 0.00 0.16 0.00 81 1008.8
20260503080558 33 242 0.0 2.0 0.00 0.16 0.00 81 1008.8
20260503072536 34 244 0.0 2.0 0.00 0.20 0.00 77 1008.8
20260503072049 35 244 0.0 2.0 0.00 0.20 0.00 77 1008.8
20260503071533 35 244 0.0 2.0 0.00 0.20 0.00 76 1008.8
20260503071028 35 244 0.0 4.0 0.00 0.20 0.00 76 1008.8
20260503070530 35 230 1.0 4.0 0.00 0.20 0.00 75 1008.8
20260503055026 36 254 0.0 2.0 0.00 0.25 0.00 74 1009.5
20260503054559 36 254 1.0 2.0 0.00 0.25 0.00 73 1009.6
20260503054030 36 259 0.0 1.0 0.00 0.25 0.00 73 1009.6
20260503053544 36 259 0.0 2.0 0.00 0.25 0.00 74 1009.5
20260503053027 36 259 1.0 4.0 0.00 0.25 0.00 74 1009.6
20260503052539 36 288 0.0 4.0 0.00 0.25 0.00 74 1009.5
20260503052110 36 229 0.0 2.0 0.00 0.25 0.00 73 1009.7
20260503051532 36 226 0.0 1.0 0.00 0.25 0.00 74 1009.6
20260503051045 36 226 0.0 2.0 0.00 0.25 0.00 74 1009.8
20260503050536 36 226 1.0 2.0 0.00 0.25 0.00 73 1009.9
20260503050037 36 277 0.0 1.0 0.00 0.25 0.00 73 1009.9
20260503045529 36 276 0.0 1.0 0.00 0.27 0.00 74 1009.9
20260503045033 36 276 0.0 1.0 0.00 0.27 0.00 74 1009.9
20260503044526 36 277 0.0 1.0 0.00 0.27 0.00 72 1010.0
20260503044059 36 277 0.0 2.0 0.00 0.27 0.00 73 1009.9
20260503043522 36 277 0.0 2.0 0.00 0.27 0.00 73 1009.8
20260503043035 36 277 0.0 2.0 0.00 0.27 0.00 73 1010.0
20260503042528 36 286 0.0 3.0 0.00 0.27 0.00 73 1010.1
20260503042032 36 294 0.0 4.0 0.00 0.27 0.00 73 1010.3
20260503041543 36 240 1.0 3.0 0.00 0.27 0.00 72 1010.4
20260503041053 36 247 0.0 2.0 0.00 0.27 0.00 71 1010.3
20260503040524 37 249 1.0 3.0 0.00 0.27 0.00 71 1010.4
20260503040027 37 252 1.0 3.0 0.00 0.27 0.00 71 1010.4
20260503035538 37 231 0.0 1.0 0.00 0.27 0.27 72 1010.4
20260503035032 37 230 0.0 0.0 0.00 0.27 0.27 70 1010.4
20260503034534 38 231 0.0 1.0 0.00 0.27 0.27 71 1010.4
20260503034028 38 231 0.0 1.0 0.00 0.27 0.27 70 1010.4
20260503033544 38 231 0.0 1.0 0.00 0.27 0.27 70 1010.5
20260503033025 39 230 0.0 4.0 0.00 0.27 0.27 68 1010.4
20260503032533 39 231 1.0 5.0 0.00 0.27 0.27 65 1010.4
20260503032036 39 237 2.0 5.0 0.00 0.27 0.27 64 1010.4
20260503031525 39 318 2.0 4.0 0.00 0.27 0.27 64 1010.4
20260503031030 39 236 1.0 2.0 0.00 0.27 0.27 66 1010.5
20260503030523 40 227 1.0 3.0 0.00 0.27 0.27 66 1010.5
20260503030036 40 285 1.0 3.0 0.00 0.27 0.27 66 1010.6
20260503025542 40 271 1.0 3.0 0.00 0.27 0.27 66 1010.6
20260503025034 40 313 1.0 3.0 0.00 0.27 0.27 66 1010.6
20260503024549 40 260 0.0 6.0 0.00 0.27 0.27 68 1010.7
20260503024031 39 314 1.0 6.0 0.00 0.27 0.27 69 1010.7
20260503023544 39 288 2.0 3.0 0.00 0.27 0.27 70 1010.7
20260503023047 39 245 0.0 2.0 0.00 0.27 0.27 72 1010.8
20260503022539 39 245 1.0 2.0 0.00 0.27 0.27 73 1010.8
20260503022053 39 245 0.0 1.0 0.00 0.27 0.27 72 1010.8
20260503021545 39 245 0.0 2.0 0.00 0.27 0.27 74 1010.8
20260503021028 39 245 0.0 2.0 0.00 0.27 0.27 72 1010.8
20260503020542 39 242 0.0 2.0 0.00 0.27 0.27 72 1010.8
20260503020056 39 242 0.0 2.0 0.00 0.27 0.27 71 1010.7
20260503015535 39 242 0.0 1.0 0.00 0.27 0.27 73 1011.0
20260503015027 39 242 0.0 1.0 0.00 0.27 0.27 72 1010.8
20260503014601 39 242 0.0 2.0 0.00 0.27 0.27 71 1010.9
20260503014024 39 244 0.0 3.0 0.00 0.27 0.27 72 1010.9
20260503013537 39 241 1.0 3.0 0.00 0.27 0.27 71 1010.8
20260503013023 40 244 0.0 2.0 0.00 0.27 0.27 71 1010.9
20260503012536 40 244 0.0 2.0 0.00 0.27 0.27 70 1010.8
20260503012030 40 244 0.0 1.0 0.00 0.27 0.27 69 1010.8
20260503011534 40 244 0.0 1.0 0.00 0.27 0.27 68 1010.8
20260503011048 40 244 0.0 1.0 0.00 0.27 0.27 67 1010.8
20260503010523 40 244 0.0 2.0 0.00 0.27 0.27 66 1010.7
20260503010028 40 244 0.0 2.0 0.00 0.27 0.27 66 1010.6
20260503005523 40 225 0.0 3.0 0.00 0.27 0.27 67 1010.6
20260503005028 41 225 1.0 3.0 0.00 0.27 0.27 69 1010.4
20260503004541 41 228 0.0 2.0 0.00 0.27 0.27 68 1010.5
20260503004033 41 228 0.0 2.0 0.00 0.27 0.27 66 1010.4
20260503003547 41 221 0.0 3.0 0.00 0.27 0.27 66 1010.4
20260503003030 41 223 0.0 2.0 0.00 0.27 0.27 66 1010.3
20260503002545 42 248 1.0 2.0 0.00 0.27 0.27 65 1010.2
20260503002030 42 250 0.0 4.0 0.00 0.27 0.27 63 1010.2
20260503001523 43 250 0.0 4.0 0.00 0.27 0.27 64 1010.1
20260503001029 43 232 0.0 4.0 0.00 0.27 0.27 64 1010.1
20260503000558 43 242 2.0 4.0 0.00 0.27 0.27 62 1010.0
20260503000031 44 225 1.0 4.0 0.00 0.27 0.27 60 1010.0